FW9372 Weather Reports


Display with metric or nautical units.
time (UTC)temp
F
wind
direction
speed
MPH
gust
MPH
rain 1hr
in
rain 24hr
in
rain mn
in
humidity
%
barometer
mb
20260903074605 71 0 0.0 0.0 0.00 0.00 0.00 98 1014.3
20260903073106 71 0 0.0 0.0 0.00 0.00 0.00 98 1014.2
20260903071611 71 0 0.0 0.0 0.00 0.00 0.00 98 1014.2
20260903070114 71 0 0.0 0.0 0.00 0.00 0.00 98 1014.1
20260903064602 72 0 0.0 0.0 0.00 0.00 0.00 98 1014.1
20260903063126 72 0 0.0 0.0 0.00 0.00 0.00 98 1014.2
20260903061606 72 0 0.0 0.0 0.00 0.00 0.00 98 1014.2
20260903060117 72 0 0.0 0.0 0.00 0.00 0.00 98 1014.2
20260903054609 72 0 0.0 0.0 0.00 0.00 0.00 98 1014.2
20260903053107 72 0 0.0 0.0 0.00 0.00 0.00 98 1014.1
20260903051608 72 0 0.0 0.0 0.00 0.00 0.00 98 1014.1
20260903050128 73 0 0.0 0.0 0.00 0.00 0.00 97 1014.1
20260903044606 73 0 0.0 0.0 0.00 0.00 0.00 97 1014.0
20260903043106 73 0 0.0 0.0 0.00 0.00 0.00 97 1014.0
20260903041608 73 0 0.0 0.0 0.00 0.00 0.00 97 1014.1
20260903040110 74 0 0.0 0.0 0.00 0.00 0.00 97 1014.0
20260903034607 73 0 0.0 0.0 0.00 0.00 0.00 96 1014.3
20260903033104 74 0 0.0 0.0 0.00 0.00 0.00 96 1014.1
20260903031605 74 0 0.0 0.0 0.00 0.00 0.00 95 1014.1
20260903030108 74 0 0.0 0.0 0.00 0.00 0.00 95 1014.1
20260903024603 75 0 0.0 0.0 0.00 0.00 0.00 95 1014.2
20260903023107 75 0 0.0 0.0 0.00 0.00 0.00 94 1014.2
20260903021612 75 0 0.0 0.0 0.00 0.00 0.00 93 1014.1
20260903020106 75 0 0.0 0.0 0.00 0.00 0.00 92 1014.1
20260903014607 76 0 0.0 0.0 0.00 0.00 0.00 91 1014.1
20260903013107 76 0 0.0 0.0 0.00 0.00 0.00 90 1013.9
20260903011611 77 0 0.0 0.0 0.00 0.00 0.00 89 1013.8
20260903010106 77 0 0.0 0.0 0.00 0.00 0.00 89 1013.8
20260903004606 78 0 0.0 0.0 0.00 0.00 0.00 89 1013.7
20260903003104 79 0 0.0 0.0 0.00 0.00 0.00 88 1013.7
20260903001608 80 0 0.0 0.0 0.00 0.00 0.00 88 1013.7
20260903000107 81 0 0.0 0.0 0.00 0.00 0.00 87 1013.6
20260902234606 82 0 0.0 0.0 0.00 0.00 0.00 86 1013.7
20260902233106 84 0 0.0 0.0 0.00 0.00 0.00 84 1013.7
20260902231610 87 0 0.0 0.0 0.00 0.00 0.00 81 1013.6
20260902230107 89 0 0.0 0.0 0.00 0.00 0.00 79 1013.7
20260902224606 90 0 0.0 0.0 0.00 0.00 0.00 77 1013.8
20260902223108 92 0 0.0 0.0 0.00 0.00 0.00 75 1013.9
20260902221609 94 0 0.0 0.0 0.00 0.00 0.00 72 1013.9
20260902220109 95 0 0.0 0.0 0.00 0.00 0.00 68 1014.0
20260902214604 96 0 0.0 0.0 0.00 0.00 0.00 66 1014.1
20260902213111 96 0 0.0 0.0 0.00 0.00 0.00 65 1014.1
20260902211608 96 0 0.0 0.0 0.00 0.00 0.00 57 1014.2
20260902210106 96 0 0.0 0.0 0.00 0.00 0.00 56 1014.3
20260902204607 96 0 0.0 2.0 0.00 0.00 0.00 57 1014.3
20260902203107 96 0 0.0 1.0 0.00 0.00 0.00 56 1014.4
20260902201606 96 0 0.0 5.0 0.00 0.00 0.00 58 1014.6
20260902200117 95 0 0.0 3.0 0.00 0.00 0.00 57 1014.9
20260902194607 96 0 0.0 1.0 0.00 0.00 0.00 59 1015.0
20260902193108 96 0 0.0 0.0 0.00 0.00 0.00 58 1015.2
20260902191605 96 0 0.0 0.0 0.00 0.00 0.00 57 1015.3
20260902190109 95 0 0.0 5.0 0.00 0.00 0.00 55 1015.4
20260902184607 94 0 0.0 7.0 0.00 0.00 0.00 59 1015.7
20260902183110 94 225 0.0 4.0 0.00 0.00 0.00 59 1015.7
20260902181608 94 0 0.0 3.0 0.00 0.00 0.00 62 1015.8
20260902180132 94 0 0.0 3.0 0.00 0.00 0.00 64 1016.0
20260902174607 93 0 1.0 6.0 0.00 0.00 0.00 62 1016.1
20260902173104 93 0 0.0 2.0 0.00 0.00 0.00 63 1016.2
20260902171611 93 0 0.0 0.0 0.00 0.00 0.00 65 1016.4
20260902170106 92 0 0.0 1.0 0.00 0.00 0.00 66 1016.5
20260902164609 92 0 0.0 4.0 0.00 0.00 0.00 67 1016.6
20260902163106 91 0 0.0 2.0 0.00 0.00 0.00 68 1016.9
20260902161608 90 189 0.0 1.0 0.00 0.00 0.00 71 1016.9
20260902160112 90 0 0.0 1.0 0.00 0.00 0.00 71 1016.9
20260902154605 89 0 0.0 1.0 0.00 0.00 0.00 72 1017.0
20260902153121 88 0 0.0 1.0 0.00 0.00 0.00 71 1017.1
20260902151607 87 0 0.0 0.0 0.00 0.00 0.00 76 1017.1
20260902150106 87 0 0.0 0.0 0.00 0.00 0.00 75 1017.1
20260902144603 86 0 0.0 0.0 0.00 0.00 0.00 77 1017.1
20260902143108 84 0 0.0 0.0 0.00 0.00 0.00 79 1017.1
20260902141607 82 0 0.0 0.0 0.00 0.00 0.00 90 1017.2
20260902140103 80 0 0.0 0.0 0.00 0.00 0.00 100 1017.2
20260902134608 78 0 0.0 0.0 0.00 0.00 0.00 100 1017.3
20260902133105 76 0 0.0 0.0 0.00 0.00 0.00 100 1017.4
20260902131607 74 0 0.0 0.0 0.00 0.00 0.00 100 1017.4
20260902130106 73 0 0.0 0.0 0.00 0.00 0.00 100 1017.3
20260902124611 72 0 0.0 0.0 0.00 0.00 0.00 100 1017.3
20260902123105 71 0 0.0 0.0 0.00 0.00 0.00 99 1017.3
20260902121614 70 0 0.0 0.0 0.00 0.00 0.00 99 1017.3
20260902120105 69 0 0.0 0.0 0.00 0.00 0.00 99 1017.0
20260902114605 69 0 0.0 0.0 0.00 0.00 0.00 99 1016.7
20260902113111 69 0 0.0 0.0 0.00 0.00 0.00 99 1016.4
20260902111605 69 0 0.0 0.0 0.00 0.00 0.00 99 1016.3
20260902110120 69 0 0.0 0.0 0.00 0.00 0.00 99 1016.3
20260902104605 69 0 0.0 0.0 0.00 0.00 0.00 99 1016.3
20260902103108 69 0 0.0 0.0 0.00 0.00 0.00 99 1016.1
20260902101607 69 0 0.0 0.0 0.00 0.00 0.00 99 1016.0
20260902100112 70 0 0.0 0.0 0.00 0.00 0.00 99 1015.9
20260902094607 70 0 0.0 0.0 0.00 0.00 0.00 99 1015.7
20260902093105 70 0 0.0 0.0 0.00 0.00 0.00 99 1015.8
20260902091606 70 0 0.0 0.0 0.00 0.00 0.00 99 1015.6
20260902090106 70 0 0.0 0.0 0.00 0.00 0.00 99 1015.4
20260902084622 70 0 0.0 0.0 0.00 0.00 0.00 98 1015.4
20260902083105 70 0 0.0 0.0 0.00 0.00 0.00 99 1015.4
20260902081609 70 0 0.0 0.0 0.00 0.00 0.00 99 1015.4
20260902080106 70 0 0.0 0.0 0.00 0.00 0.00 99 1015.4